Location: Bussy-Saint-Georges
(48.8410°N, 2.7017°E)
Time: 21:21:46
(UTC+00:00)

Cosmos 2278 - Pass Details

Date: 18 October 2021
Orbit: 838 x 854 km, 71.1° (Epoch: 07 December)

Event Time Altitude Azimuth Distance (km) Brightness Sun altitude
Rises 19:01:00 0° 220° (SW) 3,390 7.2 -21.7°
Reaches altitude 10° 19:03:29 10° 224° (SW) 2,461 6.5 -22.1°
Maximum altitude 19:09:02 57° 303° (WNW) 991 4.3 -23.0°
Drops below altitude 10° 19:14:40 10° 22° (NNE) 2,486 6.0 -23.9°
Sets 19:17:11 0° 27° (NNE) 3,428 6.7 -24.3°
